Time,TemperatureF,DewpointF,PressureIn,WindDirection,WindDirectionDegrees,WindSpeedMPH,WindSpeedGustMPH,Humidity,HourlyPrecipIn,Conditions,Clouds,dailyrainin,SoftwareType,DateUTC
2013-02-16 00:03:00,9.8,2.6,30.16,West,274,4.3,9.2,72,0.00,CLR,,0.00,WeatherDisplay:10.37,2013-02-16 06:03:00,
2013-02-16 00:08:00,9.7,2.5,30.16,NW,309,3.9,6.9,72,0.00,CLR,,0.00,WeatherDisplay:10.37,2013-02-16 06:08:00,
2013-02-16 00:13:00,9.8,2.6,30.16,WNW,288,3.2,5.8,72,0.00,CLR,,0.00,WeatherDisplay:10.37,2013-02-16 06:13:00,
2013-02-16 00:18:00,9.6,2.4,30.16,WSW,254,2.9,3.5,72,0.00,CLR,,0.00,WeatherDisplay:10.37,2013-02-16 06:18:00,
2013-02-16 00:23:00,9.7,2.8,30.16,WNW,284,2.9,5.2,73,0.00,CLR,,0.00,WeatherDisplay:10.37,2013-02-16 06:23:00,
2013-02-16 00:28:00,9.6,2.4,30.16,NW,314,2.6,5.8,72,0.00,CLR,,0.00,WeatherDisplay:10.37,2013-02-16 06:28:00,
2013-02-16 00:33:00,9.4,2.2,30.15,NNW,342,1.1,6.9,72,0.00,CLR,,0.00,WeatherDisplay:10.37,2013-02-16 06:33:00,
2013-02-16 00:38:00,9.2,2.0,30.16,NW,304,3.9,4.6,72,0.00,CLR,,0.00,WeatherDisplay:10.37,2013-02-16 06:38:00,
2013-02-16 00:43:00,9.3,2.1,30.16,NE,41,0.8,3.5,72,0.00,CLR,,0.00,WeatherDisplay:10.37,2013-02-16 06:43:00,
2013-02-16 00:48:00,9.1,2.2,30.15,WNW,283,0.1,3.5,73,0.00,CLR,,0.00,WeatherDisplay:10.37,2013-02-16 06:48:00,
2013-02-16 00:53:00,9.2,2.3,30.15,WNW,302,2.9,5.8,73,0.00,CLR,,0.00,WeatherDisplay:10.37,2013-02-16 06:53:00,
2013-02-16 00:58:00,8.9,2.3,30.15,North,357,3.8,5.5,74,0.00,CLR,,0.00,WeatherDisplay:10.37,2013-02-16 06:58:00,
2013-02-16 01:03:00,8.6,2.0,30.14,NW,308,2.0,4.6,74,0.00,CLR,,0.00,WeatherDisplay:10.37,2013-02-16 07:03:00,
2013-02-16 01:08:00,8.7,2.1,30.14,NW,319,4.4,6.9,74,0.00,CLR,,0.00,WeatherDisplay:10.37,2013-02-16 07:08:00,
2013-02-16 01:13:00,8.5,1.9,30.14,NE,37,4.2,5.8,74,0.00,CLR,,0.00,WeatherDisplay:10.37,2013-02-16 07:13:00,
2013-02-16 01:18:00,8.6,2.3,30.15,NNE,31,3.9,8.1,75,0.00,CLR,,0.00,WeatherDisplay:10.37,2013-02-16 07:18:00,
2013-02-16 01:23:00,8.7,2.1,30.15,NW,313,3.0,8.0,74,0.00,CLR,CLR,0.00,WeatherDisplay:10.37,2013-02-16 07:23:00,
2013-02-16 01:28:00,8.6,2.0,30.15,NW,314,3.0,7.0,74,0.00,CLR,CLR,0.00,WeatherDisplay:10.37,2013-02-16 07:28:00,
2013-02-16 01:33:00,8.6,2.3,30.15,NW,315,1.0,6.0,75,0.00,CLR,CLR,0.00,WeatherDisplay:10.37,2013-02-16 07:33:00,
2013-02-16 01:38:00,8.4,2.4,30.15,NW,304,3.0,6.0,76,0.00,CLR,CLR,0.00,WeatherDisplay:10.37,2013-02-16 07:38:00,
2013-02-16 01:43:00,8.3,2.3,30.15,WNW,303,2.0,6.0,76,0.00,CLR,CLR,0.00,WeatherDisplay:10.37,2013-02-16 07:43:00,
2013-02-16 01:48:00,8.4,2.4,30.14,WNW,303,0.0,5.0,76,0.00,CLR,CLR,0.00,WeatherDisplay:10.37,2013-02-16 07:48:00,
2013-02-16 01:53:00,8.3,2.3,30.14,WNW,294,0.0,0.0,76,0.00,CLR,CLR,0.00,WeatherDisplay:10.37,2013-02-16 07:53:00,
2013-02-16 01:58:00,8.2,2.2,30.14,WNW,298,0.0,0.0,76,0.00,CLR,CLR,0.00,WeatherDisplay:10.37,2013-02-16 07:58:00,
2013-02-16 02:03:00,8.1,2.1,30.14,WNW,298,0.0,0.0,76,0.00,CLR,CLR,0.00,WeatherDisplay:10.37,2013-02-16 08:03:00,
2013-02-16 02:08:00,8.0,2.0,30.14,WNW,298,0.0,0.0,76,0.00,CLR,CLR,0.00,WeatherDisplay:10.37,2013-02-16 08:08:00,
2013-02-16 02:13:00,8.0,2.3,30.14,WNW,298,0.0,0.0,77,0.00,CLR,CLR,0.00,WeatherDisplay:10.37,2013-02-16 08:13:00,
2013-02-16 02:18:00,7.8,2.1,30.14,WNW,298,0.0,0.0,77,0.00,CLR,CLR,0.00,WeatherDisplay:10.37,2013-02-16 08:18:00,
2013-02-16 02:23:00,7.6,1.9,30.14,WNW,298,0.0,0.0,77,0.00,CLR,CLR,0.00,WeatherDisplay:10.37,2013-02-16 08:23:00,
2013-02-16 02:28:00,7.5,2.1,30.13,WNW,298,0.0,0.0,78,0.00,CLR,CLR,0.00,WeatherDisplay:10.37,2013-02-16 08:28:00,
2013-02-16 02:33:00,7.5,2.0,30.13,WNW,298,0.0,0.0,78,0.00,CLR,CLR,0.00,WeatherDisplay:10.37,2013-02-16 08:33:00,
2013-02-16 02:38:00,7.4,2.0,30.13,WNW,298,0.0,0.0,78,0.00,CLR,CLR,0.00,WeatherDisplay:10.37,2013-02-16 08:38:00,
2013-02-16 02:43:00,7.3,2.2,30.13,WNW,298,0.0,3.0,79,0.00,CLR,CLR,0.00,WeatherDisplay:10.37,2013-02-16 08:43:00,
2013-02-16 02:48:00,7.2,2.1,30.13,WNW,297,0.0,0.0,79,0.00,CLR,CLR,0.00,WeatherDisplay:10.37,2013-02-16 08:48:00,
2013-02-16 02:53:00,7.1,2.0,30.13,WNW,290,0.0,4.0,79,0.00,CLR,CLR,0.00,WeatherDisplay:10.37,2013-02-16 08:53:00,
2013-02-16 02:58:00,7.1,2.2,30.13,WNW,282,0.0,0.0,80,0.00,CLR,CLR,0.00,WeatherDisplay:10.37,2013-02-16 08:58:00,
2013-02-16 03:03:00,7.0,2.2,30.12,WNW,282,2.0,6.0,80,0.00,CLR,CLR,0.00,WeatherDisplay:10.37,2013-02-16 09:03:00,
2013-02-16 03:08:00,7.1,2.3,30.12,WNW,291,0.0,2.0,80,0.00,CLR,CLR,0.00,WeatherDisplay:10.37,2013-02-16 09:08:00,
2013-02-16 03:13:00,7.0,2.2,30.12,WNW,292,0.0,2.0,80,0.00,CLR,CLR,0.00,WeatherDisplay:10.37,2013-02-16 09:13:00,
2013-02-16 03:18:00,6.9,2.1,30.12,WSW,238,1.0,4.0,80,0.00,CLR,CLR,0.00,WeatherDisplay:10.37,2013-02-16 09:18:00,
2013-02-16 03:23:00,6.9,2.1,30.12,WSW,240,0.0,0.0,80,0.00,CLR,CLR,0.00,WeatherDisplay:10.37,2013-02-16 09:23:00,
2013-02-16 03:28:00,6.9,2.1,30.12,WSW,244,0.0,0.0,80,0.00,CLR,CLR,0.00,WeatherDisplay:10.37,2013-02-16 09:28:00,
2013-02-16 03:33:00,6.9,2.1,30.12,WSW,244,0.0,0.0,80,0.00,CLR,CLR,0.00,WeatherDisplay:10.37,2013-02-16 09:33:00,
2013-02-16 03:38:00,6.8,2.0,30.11,WSW,244,0.0,0.0,80,0.00,CLR,CLR,0.00,WeatherDisplay:10.37,2013-02-16 09:38:00,
2013-02-16 03:43:00,6.6,1.8,30.11,WSW,244,0.0,0.0,80,0.00,CLR,CLR,0.00,WeatherDisplay:10.37,2013-02-16 09:43:00,
2013-02-16 03:48:00,6.5,1.7,30.12,WSW,244,0.0,0.0,80,0.00,CLR,CLR,0.00,WeatherDisplay:10.37,2013-02-16 09:48:00,
2013-02-16 03:53:00,6.3,1.8,30.11,WSW,244,0.0,0.0,81,0.00,CLR,CLR,0.00,WeatherDisplay:10.37,2013-02-16 09:53:00,
2013-02-16 03:58:00,6.2,1.6,30.11,WSW,244,0.0,0.0,81,0.00,CLR,CLR,0.00,WeatherDisplay:10.37,2013-02-16 09:58:00,
2013-02-16 04:03:00,6.0,1.7,30.11,WSW,244,0.0,0.0,82,0.00,SCT,SCT,0.00,WeatherDisplay:10.37,2013-02-16 10:03:00,
2013-02-16 04:08:00,6.0,1.7,30.11,WSW,244,0.0,0.0,82,0.00,SCT,SCT,0.00,WeatherDisplay:10.37,2013-02-16 10:08:00,
2013-02-16 04:13:00,5.9,1.8,30.11,WSW,244,0.0,0.0,83,0.00,SCT,,0.00,WeatherDisplay:10.37,2013-02-16 10:13:00,
2013-02-16 04:18:00,5.9,1.8,30.11,WSW,244,0.0,0.0,83,0.00,SCT,,0.00,WeatherDisplay:10.37,2013-02-16 10:18:00,
2013-02-16 04:23:00,5.6,1.6,30.11,WSW,244,0.0,0.0,83,0.00,SCT,,0.00,WeatherDisplay:10.37,2013-02-16 10:23:00,
2013-02-16 04:28:00,5.5,1.5,30.11,WSW,244,0.0,0.0,83,0.00,SCT,,0.00,WeatherDisplay:10.37,2013-02-16 10:28:00,
2013-02-16 04:33:00,5.4,1.6,30.11,WSW,244,0.0,0.0,84,0.00,SCT,SCT,0.00,WeatherDisplay:10.37,2013-02-16 10:33:00,
2013-02-16 04:38:00,5.2,1.4,30.11,WSW,244,0.0,0.0,84,0.00,SCT,,0.00,WeatherDisplay:10.37,2013-02-16 10:38:00,
2013-02-16 04:43:00,5.1,1.3,30.11,WSW,244,0.0,0.0,84,0.00,SCT,,0.00,WeatherDisplay:10.37,2013-02-16 10:43:00,
2013-02-16 04:48:00,5.2,1.7,30.11,WSW,244,0.0,0.0,85,0.00,SCT,,0.00,WeatherDisplay:10.37,2013-02-16 10:48:00,
2013-02-16 04:53:00,5.3,1.8,30.11,WSW,244,0.0,0.0,85,0.00,SCT,,0.00,WeatherDisplay:10.37,2013-02-16 10:53:00,
2013-02-16 04:58:00,5.4,2.1,30.11,WSW,244,0.0,0.0,86,0.00,SCT,,0.00,WeatherDisplay:10.37,2013-02-16 10:58:00,
2013-02-16 05:03:00,5.4,2.1,30.11,WSW,244,0.0,0.0,86,0.00,FEW,,0.00,WeatherDisplay:10.37,2013-02-16 11:03:00,
2013-02-16 05:08:00,5.4,2.1,30.11,WSW,244,0.0,0.0,86,0.00,FEW,,0.00,WeatherDisplay:10.37,2013-02-16 11:08:00,
2013-02-16 05:13:00,5.5,2.5,30.11,WSW,244,0.0,0.0,87,0.00,FEW,,0.00,WeatherDisplay:10.37,2013-02-16 11:13:00,
2013-02-16 05:18:00,5.8,2.8,30.11,WSW,244,0.0,0.0,87,0.00,FEW,,0.00,WeatherDisplay:10.37,2013-02-16 11:18:00,
2013-02-16 05:23:00,6.0,3.0,30.10,West,263,0.9,3.5,87,0.00,FEW,,0.00,WeatherDisplay:10.37,2013-02-16 11:23:00,
2013-02-16 05:28:00,5.9,2.9,30.11,West,281,0.0,1.1,87,0.00,FEW,,0.00,WeatherDisplay:10.37,2013-02-16 11:28:00,
2013-02-16 05:33:00,5.9,2.9,30.10,SW,229,0.1,4.6,87,0.00,FEW,,0.00,WeatherDisplay:10.37,2013-02-16 11:33:00,
2013-02-16 05:38:00,6.0,3.0,30.10,West,271,0.0,0.0,87,0.00,FEW,,0.00,WeatherDisplay:10.37,2013-02-16 11:38:00,
2013-02-16 05:43:00,6.1,3.1,30.11,North,359,0.0,0.0,87,0.00,FEW,,0.00,WeatherDisplay:10.37,2013-02-16 11:43:00,
2013-02-16 05:48:00,6.0,3.2,30.11,WNW,287,3.0,5.8,88,0.00,FEW,,0.00,WeatherDisplay:10.37,2013-02-16 11:48:00,
2013-02-16 05:53:00,5.9,3.1,30.11,NW,304,3.9,3.9,88,0.00,FEW,,0.00,WeatherDisplay:10.37,2013-02-16 11:53:00,
2013-02-16 05:58:00,6.0,3.2,30.10,West,281,3.5,5.8,88,0.00,FEW,,0.00,WeatherDisplay:10.37,2013-02-16 11:58:00,
2013-02-16 06:03:00,6.2,3.4,30.10,SSW,202,1.8,3.5,88,0.00,BKN,,0.00,WeatherDisplay:10.37,2013-02-16 12:03:00,
2013-02-16 06:08:00,6.2,3.4,30.10,WSW,256,0.0,0.0,88,0.00,BKN,,0.00,WeatherDisplay:10.37,2013-02-16 12:08:00,
2013-02-16 06:13:00,6.1,3.3,30.10,NW,315,0.8,1.1,88,0.00,BKN,,0.00,WeatherDisplay:10.37,2013-02-16 12:13:00,
2013-02-16 06:18:00,6.0,3.2,30.10,WNW,284,3.0,4.6,88,0.00,BKN,,0.00,WeatherDisplay:10.37,2013-02-16 12:18:00,
2013-02-16 06:23:00,5.9,3.1,30.10,WSW,256,1.7,3.5,88,0.00,BKN,,0.00,WeatherDisplay:10.37,2013-02-16 12:23:00,
2013-02-16 06:28:00,6.1,3.6,30.10,WSW,242,1.2,4.6,89,0.00,BKN,,0.00,WeatherDisplay:10.37,2013-02-16 12:28:00,
2013-02-16 06:33:00,6.1,3.6,30.10,West,263,0.3,2.3,89,0.00,BKN,,0.00,WeatherDisplay:10.37,2013-02-16 12:33:00,
2013-02-16 06:38:00,6.1,3.6,30.10,West,261,2.0,3.5,89,0.00,BKN,,0.00,WeatherDisplay:10.37,2013-02-16 12:38:00,
2013-02-16 06:43:00,6.3,3.8,30.11,WSW,247,2.9,4.6,89,0.00,BKN,,0.00,WeatherDisplay:10.37,2013-02-16 12:43:00,
2013-02-16 06:48:00,6.2,3.7,30.11,WNW,297,1.8,2.2,89,0.00,BKN,,0.00,WeatherDisplay:10.37,2013-02-16 12:48:00,
2013-02-16 06:53:00,6.1,3.6,30.11,South,185,0.0,0.0,89,0.00,BKN,,0.00,WeatherDisplay:10.37,2013-02-16 12:53:00,
2013-02-16 06:58:00,6.3,3.8,30.11,WNW,287,1.1,3.5,89,0.00,BKN,,0.00,WeatherDisplay:10.37,2013-02-16 12:58:00,
2013-02-16 07:03:00,6.3,4.0,30.11,NNW,336,2.4,4.6,90,0.00,SCT,,0.00,WeatherDisplay:10.37,2013-02-16 13:03:00,
2013-02-16 07:08:00,6.3,4.0,30.11,WSW,253,2.3,4.6,90,0.00,SCT,,0.00,WeatherDisplay:10.37,2013-02-16 13:08:00,
2013-02-16 07:13:00,6.2,3.9,30.11,WNW,295,3.5,6.9,90,0.00,SCT,,0.00,WeatherDisplay:10.37,2013-02-16 13:13:00,
2013-02-16 07:18:00,6.3,4.0,30.11,WNW,288,4.0,4.0,90,0.00,SCT,,0.00,WeatherDisplay:10.37,2013-02-16 13:18:00,
2013-02-16 07:23:00,6.4,4.1,30.11,West,259,1.6,5.8,90,0.00,SCT,,0.00,WeatherDisplay:10.37,2013-02-16 13:23:00,
2013-02-16 07:28:00,6.3,4.0,30.11,WSW,256,2.4,4.6,90,0.00,SCT,,0.00,WeatherDisplay:10.37,2013-02-16 13:28:00,
2013-02-16 07:33:00,6.5,4.4,30.11,NW,305,2.8,3.5,91,0.00,SCT,,0.00,WeatherDisplay:10.37,2013-02-16 13:33:00,
2013-02-16 07:38:00,6.4,4.3,30.11,WNW,288,3.8,6.2,91,0.00,SCT,,0.00,WeatherDisplay:10.37,2013-02-16 13:38:00,
2013-02-16 07:43:00,6.7,4.6,30.11,NNW,333,2.0,5.8,91,0.00,SCT,,0.00,WeatherDisplay:10.37,2013-02-16 13:43:00,
2013-02-16 07:48:00,6.6,4.5,30.11,WNW,294,1.0,4.6,91,0.00,SCT,,0.00,WeatherDisplay:10.37,2013-02-16 13:48:00,
2013-02-16 07:53:00,6.8,4.7,30.11,NW,319,2.9,3.5,91,0.00,SCT,,0.00,WeatherDisplay:10.37,2013-02-16 13:53:00,
2013-02-16 07:58:00,6.8,4.7,30.12,NNW,340,1.6,5.8,91,0.00,SCT,,0.00,WeatherDisplay:10.37,2013-02-16 13:58:00,
2013-02-16 08:03:00,6.9,4.8,30.12,West,273,2.1,3.5,91,0.00,OVC,,0.00,WeatherDisplay:10.37,2013-02-16 14:03:00,
2013-02-16 08:08:00,7.2,5.1,30.12,WNW,297,2.4,3.5,91,0.00,OVC,,0.00,WeatherDisplay:10.37,2013-02-16 14:08:00,
2013-02-16 08:13:00,7.3,5.0,30.12,NW,309,2.9,6.9,90,0.00,OVC,,0.00,WeatherDisplay:10.37,2013-02-16 14:13:00,
2013-02-16 08:18:00,7.4,5.1,30.12,NW,318,4.8,6.9,90,0.00,OVC,,0.00,WeatherDisplay:10.37,2013-02-16 14:18:00,
2013-02-16 08:23:00,7.4,5.1,30.12,WSW,242,5.7,9.2,90,0.00,OVC,,0.00,WeatherDisplay:10.37,2013-02-16 14:23:00,
2013-02-16 08:28:00,7.6,5.3,30.12,West,277,4.0,7.0,90,0.00,OVC,,0.00,WeatherDisplay:10.37,2013-02-16 14:28:00,
2013-02-16 08:33:00,7.8,5.5,30.12,NW,319,3.2,4.6,90,0.00,OVC,,0.00,WeatherDisplay:10.37,2013-02-16 14:33:00,
2013-02-16 08:38:00,7.8,5.5,30.12,NW,304,3.5,4.6,90,0.00,OVC,,0.00,WeatherDisplay:10.37,2013-02-16 14:38:00,
2013-02-16 08:43:00,8.2,5.9,30.12,NW,315,2.9,2.9,90,0.00,OVC,,0.00,WeatherDisplay:10.37,2013-02-16 14:43:00,
2013-02-16 08:48:00,8.4,6.1,30.12,NW,311,3.3,5.8,90,0.00,OVC,,0.00,WeatherDisplay:10.37,2013-02-16 14:48:00,
2013-02-16 08:53:00,8.4,6.1,30.12,North,357,2.9,8.1,90,0.00,OVC,,0.00,WeatherDisplay:10.37,2013-02-16 14:53:00,
2013-02-16 08:58:00,8.4,6.1,30.12,NW,326,2.6,5.8,90,0.00,OVC,,0.00,WeatherDisplay:10.37,2013-02-16 14:58:00,
2013-02-16 09:03:00,8.9,6.6,30.12,NW,321,2.0,6.0,90,0.00,OVC,OVC,0.00,WeatherDisplay:10.37,2013-02-16 15:03:00,
2013-02-16 09:08:00,8.9,6.3,30.12,NW,309,4.5,9.2,89,0.00,OVC,,0.00,WeatherDisplay:10.37,2013-02-16 15:08:00,
2013-02-16 09:13:00,8.6,6.0,30.12,NW,326,5.4,6.6,89,0.00,OVC,,0.00,WeatherDisplay:10.37,2013-02-16 15:13:00,
2013-02-16 09:18:00,9.5,6.9,30.13,WNW,285,0.0,0.0,89,0.00,OVC,,0.00,WeatherDisplay:10.37,2013-02-16 15:18:00,
2013-02-16 09:23:00,9.7,7.1,30.13,WNW,294,2.0,7.5,89,0.00,OVC,,0.00,WeatherDisplay:10.37,2013-02-16 15:23:00,
2013-02-16 09:28:00,9.3,6.5,30.13,WSW,246,1.4,4.6,88,0.00,OVC,,0.00,WeatherDisplay:10.37,2013-02-16 15:28:00,
2013-02-16 09:33:00,9.6,6.7,30.13,NW,312,3.0,9.0,88,0.00,OVC,OVC,0.00,WeatherDisplay:10.37,2013-02-16 15:33:00,
2013-02-16 09:38:00,9.8,7.0,30.13,NW,324,3.0,5.3,88,0.00,OVC,,0.00,WeatherDisplay:10.37,2013-02-16 15:38:00,
2013-02-16 09:43:00,10.0,6.9,30.13,WNW,301,4.0,8.1,87,0.00,OVC,,0.00,WeatherDisplay:10.37,2013-02-16 15:43:00,
2013-02-16 09:48:00,9.9,6.8,30.13,NW,324,5.3,5.8,87,0.00,OVC,,0.00,WeatherDisplay:10.37,2013-02-16 15:48:00,
2013-02-16 09:53:00,9.8,6.7,30.13,NW,307,5.0,9.0,87,0.00,OVC,OVC,0.00,WeatherDisplay:10.37,2013-02-16 15:53:00,
2013-02-16 09:58:00,10.4,7.3,30.13,WSW,254,2.9,5.7,87,0.00,OVC,,0.00,WeatherDisplay:10.37,2013-02-16 15:58:00,
2013-02-16 10:03:00,10.6,7.2,30.13,North,356,3.6,5.8,86,0.00,BKN,,0.00,WeatherDisplay:10.37,2013-02-16 16:03:00,
2013-02-16 10:08:00,10.9,7.5,30.13,NW,318,2.0,4.6,86,0.00,BKN,,0.00,WeatherDisplay:10.37,2013-02-16 16:08:00,
2013-02-16 10:13:00,11.2,7.6,30.13,NW,310,3.0,7.0,85,0.00,BKN,BKN,0.00,WeatherDisplay:10.37,2013-02-16 16:13:00,
2013-02-16 10:18:00,11.7,7.8,30.13,NE,37,1.2,5.8,84,0.00,BKN,,0.00,WeatherDisplay:10.37,2013-02-16 16:18:00,
2013-02-16 10:23:00,11.9,6.9,30.13,ESE,109,4.2,10.4,80,0.00,BKN,,0.00,WeatherDisplay:10.37,2013-02-16 16:23:00,
2013-02-16 10:28:00,12.8,8.1,30.13,NNW,345,3.6,5.8,81,0.00,BKN,,0.00,WeatherDisplay:10.37,2013-02-16 16:28:00,
2013-02-16 10:33:00,13.1,8.1,30.13,NNW,330,2.0,8.0,80,0.00,BKN,BKN,0.00,WeatherDisplay:10.37,2013-02-16 16:33:00,
2013-02-16 10:38:00,12.1,5.9,30.13,NW,311,8.0,10.0,76,0.00,BKN,BKN,0.00,WeatherDisplay:10.37,2013-02-16 16:38:00,
2013-02-16 10:43:00,11.8,6.0,30.13,NW,304,6.0,10.0,77,0.00,BKN,BKN,0.00,WeatherDisplay:10.37,2013-02-16 16:43:00,
2013-02-16 10:48:00,11.6,6.1,30.13,NW,309,5.0,9.0,78,0.00,BKN,BKN,0.00,WeatherDisplay:10.37,2013-02-16 16:48:00,
2013-02-16 10:53:00,11.9,6.6,30.13,West,264,3.7,4.6,79,0.00,BKN,,0.00,WeatherDisplay:10.37,2013-02-16 16:53:00,
2013-02-16 10:58:00,12.4,7.4,30.13,NW,323,1.0,5.0,80,0.00,BKN,BKN,0.00,WeatherDisplay:10.37,2013-02-16 16:58:00,
2013-02-16 11:03:00,12.5,7.5,30.12,NW,316,3.0,6.0,80,0.00,BKN,BKN,0.00,WeatherDisplay:10.37,2013-02-16 17:03:00,
2013-02-16 11:08:00,12.4,6.0,30.12,North,359,2.0,9.0,75,0.00,BKN,BKN,0.00,WeatherDisplay:10.37,2013-02-16 17:08:00,
2013-02-16 11:13:00,12.5,5.2,30.12,NNW,333,2.5,8.1,72,0.00,BKN,,0.00,WeatherDisplay:10.37,2013-02-16 17:13:00,
2013-02-16 11:18:00,13.1,5.8,30.12,WNW,284,0.8,5.8,72,0.00,BKN,,0.00,WeatherDisplay:10.37,2013-02-16 17:18:00,
2013-02-16 11:23:00,12.8,5.8,30.12,NW,310,5.0,8.0,73,0.00,BKN,BKN,0.00,WeatherDisplay:10.37,2013-02-16 17:23:00,
2013-02-16 11:28:00,13.0,6.0,30.12,NNW,346,1.5,4.0,73,0.00,BKN,,0.00,WeatherDisplay:10.37,2013-02-16 17:28:00,
2013-02-16 11:33:00,12.7,5.4,30.12,NW,325,1.0,9.0,72,0.00,BKN,BKN,0.00,WeatherDisplay:10.37,2013-02-16 17:33:00,
2013-02-16 11:38:00,12.9,5.9,30.11,NW,312,1.4,5.8,73,0.00,BKN,,0.00,WeatherDisplay:10.37,2013-02-16 17:38:00,
2013-02-16 11:43:00,13.5,6.5,30.11,NW,310,1.0,7.0,73,0.00,BKN,BKN,0.00,WeatherDisplay:10.37,2013-02-16 17:43:00,
2013-02-16 11:48:00,14.2,6.2,30.11,NW,321,5.0,7.0,70,0.00,BKN,BKN,0.00,WeatherDisplay:10.37,2013-02-16 17:48:00,
2013-02-16 11:53:00,14.4,5.8,30.11,NNW,334,6.0,8.0,68,0.00,BKN,BKN,0.00,WeatherDisplay:10.37,2013-02-16 17:53:00,
2013-02-16 11:58:00,14.1,5.1,30.11,North,350,3.0,10.0,67,0.00,BKN,BKN,0.00,WeatherDisplay:10.37,2013-02-16 17:58:00,
2013-02-16 12:03:00,14.5,4.8,30.11,North,360,3.0,13.0,65,0.00,BKN,BKN,0.00,WeatherDisplay:10.37,2013-02-16 18:03:00,
2013-02-16 12:08:00,14.9,4.9,30.11,North,7,2.0,7.0,64,0.00,BKN,BKN,0.00,WeatherDisplay:10.37,2013-02-16 18:08:00,
2013-02-16 12:13:00,15.0,4.7,30.11,NNE,18,0.0,10.0,63,0.00,BKN,BKN,0.00,WeatherDisplay:10.37,2013-02-16 18:13:00,
2013-02-16 12:18:00,14.9,4.2,30.11,WNW,288,3.1,6.9,62,0.00,BKN,,0.00,WeatherDisplay:10.37,2013-02-16 18:18:00,
2013-02-16 12:23:00,14.4,3.4,30.11,NNW,335,3.0,11.0,61,0.00,BKN,BKN,0.00,WeatherDisplay:10.37,2013-02-16 18:23:00,
2013-02-16 12:28:00,13.8,2.8,30.11,NW,320,2.0,11.0,61,0.00,BKN,BKN,0.00,WeatherDisplay:10.37,2013-02-16 18:28:00,
2013-02-16 12:33:00,14.6,3.6,30.10,NW,311,2.0,6.0,61,0.00,BKN,BKN,0.00,WeatherDisplay:10.37,2013-02-16 18:33:00,
2013-02-16 12:38:00,14.3,3.6,30.10,NNW,327,1.0,8.0,62,0.00,BKN,BKN,0.00,WeatherDisplay:10.37,2013-02-16 18:38:00,
2013-02-16 12:43:00,14.4,3.0,30.10,NNW,346,6.7,6.7,60,0.00,BKN,,0.00,WeatherDisplay:10.37,2013-02-16 18:43:00,
2013-02-16 12:48:00,14.7,3.3,30.10,North,351,2.0,9.0,60,0.00,BKN,BKN,0.00,WeatherDisplay:10.37,2013-02-16 18:48:00,
2013-02-16 12:53:00,14.8,3.4,30.10,North,6,2.0,10.0,60,0.00,BKN,BKN,0.00,WeatherDisplay:10.37,2013-02-16 18:53:00,
2013-02-16 12:58:00,15.1,3.7,30.10,North,7,3.0,9.0,60,0.00,BKN,BKN,0.00,WeatherDisplay:10.37,2013-02-16 18:58:00,
2013-02-16 13:03:00,15.1,3.3,30.10,North,360,6.0,10.0,59,0.00,SCT,SCT,0.00,WeatherDisplay:10.37,2013-02-16 19:03:00,
2013-02-16 13:08:00,14.5,2.4,30.10,NNW,348,2.0,10.0,58,0.00,SCT,SCT,0.00,WeatherDisplay:10.37,2013-02-16 19:08:00,
2013-02-16 13:13:00,14.7,2.9,30.10,North,349,2.0,8.0,59,0.00,SCT,SCT,0.00,WeatherDisplay:10.37,2013-02-16 19:13:00,
2013-02-16 13:18:00,14.7,2.2,30.10,North,350,6.0,10.0,57,0.00,SCT,SCT,0.00,WeatherDisplay:10.37,2013-02-16 19:18:00,
2013-02-16 13:23:00,14.8,2.7,30.09,North,358,2.0,9.0,58,0.00,SCT,SCT,0.00,WeatherDisplay:10.37,2013-02-16 19:23:00,
2013-02-16 13:28:00,15.3,3.5,30.09,North,0,6.0,11.0,59,0.00,SCT,SCT,0.00,WeatherDisplay:10.37,2013-02-16 19:28:00,
2013-02-16 13:33:00,15.2,3.1,30.09,North,354,5.0,12.0,58,0.00,SCT,SCT,0.00,WeatherDisplay:10.37,2013-02-16 19:33:00,
2013-02-16 13:38:00,15.2,2.7,30.09,North,4,3.0,10.0,57,0.00,SCT,SCT,0.00,WeatherDisplay:10.37,2013-02-16 19:38:00,
2013-02-16 13:43:00,15.5,3.3,30.09,North,3,7.0,12.0,58,0.00,SCT,SCT,0.00,WeatherDisplay:10.37,2013-02-16 19:43:00,
2013-02-16 13:48:00,15.3,2.4,30.09,NNW,339,7.0,12.0,56,0.00,SCT,SCT,0.00,WeatherDisplay:10.37,2013-02-16 19:48:00,
2013-02-16 13:53:00,15.1,2.2,30.09,WNW,285,6.0,12.0,56,0.00,SCT,SCT,0.00,WeatherDisplay:10.37,2013-02-16 19:53:00,
2013-02-16 13:58:00,15.0,2.5,30.09,WNW,299,5.0,10.0,57,0.00,SCT,SCT,0.00,WeatherDisplay:10.37,2013-02-16 19:58:00,
2013-02-16 14:03:00,16.0,3.8,30.09,NW,325,2.0,7.0,58,0.00,SCT,SCT,0.00,WeatherDisplay:10.37,2013-02-16 20:03:00,
2013-02-16 14:08:00,16.4,3.8,30.09,North,352,6.0,9.0,57,0.00,SCT,SCT,0.00,WeatherDisplay:10.37,2013-02-16 20:08:00,
2013-02-16 14:13:00,16.7,4.1,30.09,North,357,5.0,9.0,57,0.00,SCT,SCT,0.00,WeatherDisplay:10.37,2013-02-16 20:13:00,
2013-02-16 14:18:00,16.7,3.7,30.09,North,3,1.0,9.0,56,0.00,SCT,SCT,0.00,WeatherDisplay:10.37,2013-02-16 20:18:00,
2013-02-16 14:23:00,17.2,4.2,30.09,NW,325,5.0,9.0,56,0.00,SCT,SCT,0.00,WeatherDisplay:10.37,2013-02-16 20:23:00,
2013-02-16 14:28:00,16.5,2.3,30.09,WNW,293,3.0,9.0,53,0.00,SCT,SCT,0.00,WeatherDisplay:10.37,2013-02-16 20:28:00,
2013-02-16 14:33:00,17.2,4.2,30.09,NW,326,5.0,9.0,56,0.00,SCT,SCT,0.00,WeatherDisplay:10.37,2013-02-16 20:33:00,
2013-02-16 14:38:00,17.2,3.4,30.09,NNW,340,3.0,10.0,54,0.00,SCT,SCT,0.00,WeatherDisplay:10.37,2013-02-16 20:38:00,
2013-02-16 14:43:00,17.4,3.6,30.09,NNW,336,1.0,9.0,54,0.00,SCT,SCT,0.00,WeatherDisplay:10.37,2013-02-16 20:43:00,
2013-02-16 14:48:00,16.9,3.5,30.09,NNW,332,3.0,12.0,55,0.00,SCT,SCT,0.00,WeatherDisplay:10.37,2013-02-16 20:48:00,
2013-02-16 14:53:00,17.3,3.9,30.09,NNW,329,5.0,9.0,55,0.00,SCT,SCT,0.00,WeatherDisplay:10.37,2013-02-16 20:53:00,
2013-02-16 14:58:00,17.3,3.9,30.09,NNW,334,5.0,10.0,55,0.00,SCT,SCT,0.00,WeatherDisplay:10.37,2013-02-16 20:58:00,
2013-02-16 15:03:00,16.7,2.5,30.09,North,350,6.0,12.0,53,0.00,SCT,SCT,0.00,WeatherDisplay:10.37,2013-02-16 21:03:00,
2013-02-16 15:08:00,17.1,3.3,30.09,NNW,344,2.0,9.0,54,0.00,SCT,SCT,0.00,WeatherDisplay:10.37,2013-02-16 21:08:00,
2013-02-16 15:13:00,16.7,2.9,30.09,NNW,331,3.0,9.0,54,0.00,SCT,SCT,0.00,WeatherDisplay:10.37,2013-02-16 21:13:00,
2013-02-16 15:18:00,16.5,2.7,30.09,NW,326,5.0,7.0,54,0.00,SCT,SCT,0.00,WeatherDisplay:10.37,2013-02-16 21:18:00,
2013-02-16 15:23:00,17.2,4.1,30.09,North,351,3.0,9.0,56,0.00,SCT,SCT,0.00,WeatherDisplay:10.37,2013-02-16 21:23:00,
2013-02-16 15:28:00,17.1,3.3,30.09,North,3,5.0,11.0,54,0.00,SCT,SCT,0.00,WeatherDisplay:10.37,2013-02-16 21:28:00,
2013-02-16 15:33:00,17.4,3.5,30.09,North,6,2.0,7.0,54,0.00,SCT,SCT,0.00,WeatherDisplay:10.37,2013-02-16 21:33:00,
2013-02-16 15:38:00,17.3,3.9,30.09,NNW,329,1.0,9.0,55,0.00,SCT,SCT,0.00,WeatherDisplay:10.37,2013-02-16 21:38:00,
2013-02-16 15:43:00,17.3,3.5,30.09,NNW,333,2.0,10.0,54,0.00,SCT,SCT,0.00,WeatherDisplay:10.37,2013-02-16 21:43:00,
2013-02-16 15:48:00,17.8,4.4,30.10,NNW,346,0.0,5.0,55,0.00,SCT,SCT,0.00,WeatherDisplay:10.37,2013-02-16 21:48:00,
2013-02-16 15:53:00,17.4,3.2,30.10,NW,322,6.0,8.0,53,0.00,SCT,SCT,0.00,WeatherDisplay:10.37,2013-02-16 21:53:00,
2013-02-16 15:58:00,17.2,3.3,30.10,NW,323,0.0,10.0,54,0.00,SCT,SCT,0.00,WeatherDisplay:10.37,2013-02-16 21:58:00,
2013-02-16 16:03:00,17.5,4.1,30.10,NNW,342,5.0,12.0,55,0.00,FEW,FEW,0.00,WeatherDisplay:10.37,2013-02-16 22:03:00,
2013-02-16 16:08:00,17.5,3.7,30.10,North,0,5.0,10.0,54,0.00,FEW,FEW,0.00,WeatherDisplay:10.37,2013-02-16 22:08:00,
2013-02-16 16:13:00,17.2,3.4,30.10,North,349,2.0,10.0,54,0.00,FEW,FEW,0.00,WeatherDisplay:10.37,2013-02-16 22:13:00,
2013-02-16 16:18:00,17.2,3.4,30.10,NNW,336,2.0,6.0,54,0.00,FEW,FEW,0.00,WeatherDisplay:10.37,2013-02-16 22:18:00,
2013-02-16 16:23:00,16.8,3.1,30.10,NNW,342,2.0,11.0,54,0.00,FEW,FEW,0.00,WeatherDisplay:10.37,2013-02-16 22:23:00,
2013-02-16 16:28:00,16.8,3.0,30.10,NNW,346,1.0,7.0,54,0.00,FEW,FEW,0.00,WeatherDisplay:10.37,2013-02-16 22:28:00,
2013-02-16 16:33:00,16.7,3.3,30.10,NNW,338,0.0,8.0,55,0.00,FEW,FEW,0.00,WeatherDisplay:10.37,2013-02-16 22:33:00,
2013-02-16 16:38:00,16.7,3.4,30.10,North,353,1.0,6.0,55,0.00,FEW,FEW,0.00,WeatherDisplay:10.37,2013-02-16 22:38:00,
2013-02-16 16:43:00,16.3,3.4,30.09,NNE,28,0.0,8.0,56,0.00,FEW,FEW,0.00,WeatherDisplay:10.37,2013-02-16 22:43:00,
2013-02-16 16:48:00,16.0,3.1,30.09,NNE,27,0.0,6.0,56,0.00,FEW,FEW,0.00,WeatherDisplay:10.37,2013-02-16 22:48:00,
2013-02-16 16:53:00,15.7,2.8,30.09,NNE,14,2.0,7.0,56,0.00,FEW,FEW,0.00,WeatherDisplay:10.37,2013-02-16 22:53:00,
2013-02-16 16:58:00,15.5,3.0,30.10,North,354,3.0,7.0,57,0.00,FEW,FEW,0.00,WeatherDisplay:10.37,2013-02-16 22:58:00,
2013-02-16 17:03:00,15.1,2.6,30.10,NNW,340,1.0,7.0,57,0.00,SCT,SCT,0.00,WeatherDisplay:10.37,2013-02-16 23:03:00,
2013-02-16 17:08:00,14.9,2.7,30.10,North,356,3.0,8.0,58,0.00,SCT,SCT,0.00,WeatherDisplay:10.37,2013-02-16 23:08:00,
2013-02-16 17:13:00,14.6,2.5,30.10,North,4,1.0,7.0,58,0.00,SCT,SCT,0.00,WeatherDisplay:10.37,2013-02-16 23:13:00,
2013-02-16 17:18:00,14.4,2.6,30.11,North,354,1.0,7.0,59,0.00,SCT,SCT,0.00,WeatherDisplay:10.37,2013-02-16 23:18:00,
2013-02-16 17:23:00,14.1,2.4,30.11,NNW,348,5.0,9.0,59,0.00,SCT,SCT,0.00,WeatherDisplay:10.37,2013-02-16 23:23:00,
2013-02-16 17:28:00,14.0,2.7,30.11,NNW,344,0.0,7.0,60,0.00,SCT,SCT,0.00,WeatherDisplay:10.37,2013-02-16 23:28:00,
2013-02-16 17:33:00,13.9,2.6,30.11,NNW,340,1.0,6.0,60,0.00,SCT,SCT,0.00,WeatherDisplay:10.37,2013-02-16 23:33:00,
2013-02-16 17:38:00,13.8,2.8,30.11,North,6,0.0,2.0,61,0.00,SCT,SCT,0.00,WeatherDisplay:10.37,2013-02-16 23:38:00,
2013-02-16 17:43:00,13.6,2.6,30.12,NNE,24,0.0,0.0,61,0.00,SCT,SCT,0.00,WeatherDisplay:10.37,2013-02-16 23:43:00,
2013-02-16 17:48:00,13.3,2.7,30.12,NNE,24,0.0,0.0,62,0.00,SCT,SCT,0.00,WeatherDisplay:10.37,2013-02-16 23:48:00,
2013-02-16 17:53:00,13.1,2.5,30.12,North,11,0.0,1.0,62,0.00,SCT,SCT,0.00,WeatherDisplay:10.37,2013-02-16 23:53:00,
2013-02-16 17:58:00,12.8,2.5,30.12,North,350,0.0,0.0,63,0.00,SCT,SCT,0.00,WeatherDisplay:10.37,2013-02-16 23:58:00,
2013-02-16 18:03:00,12.5,2.2,30.12,North,350,0.0,0.0,63,0.00,FEW,FEW,0.00,WeatherDisplay:10.37,2013-02-17 00:03:00,
2013-02-16 18:08:00,12.4,2.5,30.12,North,350,0.0,0.0,64,0.00,FEW,FEW,0.00,WeatherDisplay:10.37,2013-02-17 00:08:00,
2013-02-16 18:13:00,12.0,2.1,30.12,North,350,0.0,0.0,64,0.00,FEW,FEW,0.00,WeatherDisplay:10.37,2013-02-17 00:13:00,
2013-02-16 18:18:00,11.7,2.2,30.12,North,350,0.0,0.0,65,0.00,FEW,FEW,0.00,WeatherDisplay:10.37,2013-02-17 00:18:00,
2013-02-16 18:23:00,11.5,2.0,30.12,North,350,0.0,0.0,65,0.00,FEW,FEW,0.00,WeatherDisplay:10.37,2013-02-17 00:23:00,
2013-02-16 18:28:00,11.2,2.1,30.12,North,350,0.0,0.0,66,0.00,FEW,FEW,0.00,WeatherDisplay:10.37,2013-02-17 00:28:00,
2013-02-16 18:33:00,11.2,2.0,30.12,North,350,0.0,0.0,66,0.00,FEW,FEW,0.00,WeatherDisplay:10.37,2013-02-17 00:33:00,
2013-02-16 18:38:00,10.9,1.8,30.12,North,350,0.0,0.0,66,0.00,FEW,FEW,0.00,WeatherDisplay:10.37,2013-02-17 00:38:00,
2013-02-16 18:43:00,10.8,1.7,30.12,North,350,0.0,0.0,66,0.00,FEW,FEW,0.00,WeatherDisplay:10.37,2013-02-17 00:43:00,
2013-02-16 18:48:00,10.6,1.5,30.12,North,350,0.0,0.0,66,0.00,FEW,FEW,0.00,WeatherDisplay:10.37,2013-02-17 00:48:00,
2013-02-16 18:53:00,10.4,1.6,30.12,North,350,0.0,0.0,67,0.00,FEW,FEW,0.00,WeatherDisplay:10.37,2013-02-17 00:53:00,
2013-02-16 18:58:00,10.3,1.5,30.13,North,350,0.0,0.0,67,0.00,FEW,FEW,0.00,WeatherDisplay:10.37,2013-02-17 00:58:00,
2013-02-16 19:03:00,10.3,1.5,30.13,North,350,0.0,0.0,67,0.00,CLR,CLR,0.00,WeatherDisplay:10.37,2013-02-17 01:03:00,
2013-02-16 19:08:00,10.3,1.5,30.12,North,350,0.0,0.0,67,0.00,CLR,CLR,0.00,WeatherDisplay:10.37,2013-02-17 01:08:00,
2013-02-16 19:13:00,10.2,1.7,30.13,North,350,0.0,0.0,68,0.00,CLR,CLR,0.00,WeatherDisplay:10.37,2013-02-17 01:13:00,
2013-02-16 19:18:00,10.0,1.5,30.12,North,350,0.0,0.0,68,0.00,CLR,CLR,0.00,WeatherDisplay:10.37,2013-02-17 01:18:00,
2013-02-16 19:23:00,9.9,1.5,30.12,North,350,0.0,0.0,68,0.00,CLR,CLR,0.00,WeatherDisplay:10.37,2013-02-17 01:23:00,
2013-02-16 19:28:00,9.8,1.4,30.12,North,350,0.0,0.0,68,0.00,CLR,CLR,0.00,WeatherDisplay:10.37,2013-02-17 01:28:00,
2013-02-16 19:33:00,9.8,1.4,30.13,North,350,0.0,0.0,68,0.00,CLR,CLR,0.00,WeatherDisplay:10.37,2013-02-17 01:33:00,
2013-02-16 19:38:00,9.7,1.2,30.12,North,350,0.0,0.0,68,0.00,CLR,CLR,0.00,WeatherDisplay:10.37,2013-02-17 01:38:00,
2013-02-16 19:43:00,9.7,1.2,30.13,North,350,0.0,0.0,68,0.00,CLR,CLR,0.00,WeatherDisplay:10.37,2013-02-17 01:43:00,
2013-02-16 19:48:00,9.5,1.1,30.12,North,350,0.0,0.0,68,0.00,CLR,CLR,0.00,WeatherDisplay:10.37,2013-02-17 01:48:00,
2013-02-16 19:53:00,9.4,1.3,30.13,North,350,0.0,0.0,69,0.00,CLR,CLR,0.00,WeatherDisplay:10.37,2013-02-17 01:53:00,
2013-02-16 19:58:00,9.3,1.2,30.12,North,350,0.0,0.0,69,0.00,CLR,CLR,0.00,WeatherDisplay:10.37,2013-02-17 01:58:00,
2013-02-16 20:03:00,9.3,1.1,30.12,North,350,0.0,0.0,69,0.00,CLR,CLR,0.00,WeatherDisplay:10.37,2013-02-17 02:03:00,
2013-02-16 20:08:00,9.2,1.1,30.12,North,350,0.0,0.0,69,0.00,CLR,CLR,0.00,WeatherDisplay:10.37,2013-02-17 02:08:00,
2013-02-16 20:13:00,9.1,1.0,30.12,North,350,0.0,0.0,69,0.00,CLR,CLR,0.00,WeatherDisplay:10.37,2013-02-17 02:13:00,
2013-02-16 20:18:00,9.1,1.2,30.12,North,350,0.0,0.0,70,0.00,CLR,CLR,0.00,WeatherDisplay:10.37,2013-02-17 02:18:00,
2013-02-16 20:23:00,9.0,1.2,30.12,North,350,0.0,0.0,70,0.00,CLR,CLR,0.00,WeatherDisplay:10.37,2013-02-17 02:23:00,
2013-02-16 20:28:00,8.7,0.9,30.12,North,350,0.0,0.0,70,0.00,CLR,CLR,0.00,WeatherDisplay:10.37,2013-02-17 02:28:00,
2013-02-16 20:33:00,8.5,1.0,30.12,North,350,0.0,0.0,71,0.00,CLR,CLR,0.00,WeatherDisplay:10.37,2013-02-17 02:33:00,
2013-02-16 20:38:00,8.3,1.1,30.13,North,350,0.0,0.0,72,0.00,CLR,CLR,0.00,WeatherDisplay:10.37,2013-02-17 02:38:00,
2013-02-16 20:43:00,8.1,0.9,30.13,North,350,0.0,0.0,72,0.00,CLR,CLR,0.00,WeatherDisplay:10.37,2013-02-17 02:43:00,
2013-02-16 20:48:00,8.3,1.1,30.13,North,350,0.0,0.0,72,0.00,CLR,CLR,0.00,WeatherDisplay:10.37,2013-02-17 02:48:00,
2013-02-16 20:53:00,8.5,1.3,30.13,North,350,0.0,0.0,72,0.00,CLR,CLR,0.00,WeatherDisplay:10.37,2013-02-17 02:53:00,
2013-02-16 20:58:00,8.4,1.3,30.13,North,350,0.0,0.0,72,0.00,CLR,CLR,0.00,WeatherDisplay:10.37,2013-02-17 02:58:00,
2013-02-16 21:03:00,8.1,0.9,30.13,North,350,0.0,0.0,72,0.00,CLR,,0.00,WeatherDisplay:10.37,2013-02-17 03:03:00,
2013-02-16 21:08:00,8.1,1.2,30.13,North,350,0.0,0.0,73,0.00,CLR,,0.00,WeatherDisplay:10.37,2013-02-17 03:08:00,
2013-02-16 21:13:00,7.8,0.9,30.13,North,350,0.0,0.0,73,0.00,CLR,,0.00,WeatherDisplay:10.37,2013-02-17 03:13:00,
2013-02-16 21:18:00,7.8,1.2,30.13,North,350,0.0,0.0,74,0.00,CLR,,0.00,WeatherDisplay:10.37,2013-02-17 03:18:00,
2013-02-16 21:23:00,7.6,1.0,30.14,North,350,0.0,0.0,74,0.00,CLR,,0.00,WeatherDisplay:10.37,2013-02-17 03:23:00,
2013-02-16 21:28:00,7.4,1.1,30.13,North,350,0.0,0.0,75,0.00,CLR,,0.00,WeatherDisplay:10.37,2013-02-17 03:28:00,
2013-02-16 21:33:00,7.1,1.1,30.13,North,350,0.0,0.0,76,0.00,CLR,,0.00,WeatherDisplay:10.37,2013-02-17 03:33:00,
2013-02-16 21:38:00,6.6,0.6,30.13,North,350,0.0,0.0,76,0.00,CLR,,0.00,WeatherDisplay:10.37,2013-02-17 03:38:00,
2013-02-16 21:43:00,6.4,0.4,30.13,North,350,0.0,0.0,76,0.00,CLR,,0.00,WeatherDisplay:10.37,2013-02-17 03:43:00,
2013-02-16 21:48:00,6.1,0.4,30.13,North,350,0.0,0.0,77,0.00,CLR,,0.00,WeatherDisplay:10.37,2013-02-17 03:48:00,
2013-02-16 21:53:00,5.9,0.5,30.13,North,350,0.0,0.0,78,0.00,CLR,,0.00,WeatherDisplay:10.37,2013-02-17 03:53:00,
2013-02-16 21:58:00,5.8,0.4,30.13,North,350,0.0,0.0,78,0.00,CLR,,0.00,WeatherDisplay:10.37,2013-02-17 03:58:00,
2013-02-16 22:03:00,5.7,0.3,30.13,North,350,0.0,0.0,78,0.00,CLR,,0.00,WeatherDisplay:10.37,2013-02-17 04:03:00,
2013-02-16 22:08:00,5.4,0.3,30.13,North,350,0.0,0.0,79,0.00,CLR,,0.00,WeatherDisplay:10.37,2013-02-17 04:08:00,
2013-02-16 22:13:00,5.2,0.1,30.13,North,350,0.0,0.0,79,0.00,CLR,,0.00,WeatherDisplay:10.37,2013-02-17 04:13:00,
2013-02-16 22:18:00,5.2,0.4,30.13,North,350,0.0,0.0,80,0.00,CLR,,0.00,WeatherDisplay:10.37,2013-02-17 04:18:00,
2013-02-16 22:23:00,5.3,0.7,30.13,North,350,0.0,0.0,81,0.00,CLR,,0.00,WeatherDisplay:10.37,2013-02-17 04:23:00,
2013-02-16 22:28:00,5.4,0.8,30.13,North,350,0.0,0.0,81,0.00,CLR,,0.00,WeatherDisplay:10.37,2013-02-17 04:28:00,
2013-02-16 22:33:00,5.5,0.9,30.13,North,350,0.0,0.0,81,0.00,CLR,,0.00,WeatherDisplay:10.37,2013-02-17 04:33:00,
2013-02-16 22:38:00,5.8,1.2,30.13,North,350,0.0,0.0,81,0.00,CLR,,0.00,WeatherDisplay:10.37,2013-02-17 04:38:00,
2013-02-16 22:43:00,5.9,1.3,30.13,North,350,0.0,0.0,81,0.00,CLR,,0.00,WeatherDisplay:10.37,2013-02-17 04:43:00,
2013-02-16 22:48:00,5.9,1.3,30.12,North,350,0.0,0.0,81,0.00,CLR,,0.00,WeatherDisplay:10.37,2013-02-17 04:48:00,
2013-02-16 22:53:00,5.9,1.3,30.12,North,350,0.0,0.0,81,0.00,CLR,,0.00,WeatherDisplay:10.37,2013-02-17 04:53:00,
2013-02-16 22:58:00,5.7,0.9,30.12,North,350,0.0,0.0,80,0.00,CLR,,0.00,WeatherDisplay:10.37,2013-02-17 04:58:00,
2013-02-16 23:00:00,5.4,0.8,30.12,North,350,0.0,0.0,81,0.00,CLR,,0.00,WeatherDisplay:10.37,2013-02-17 05:00:00,
2013-02-16 23:01:00,5.6,1.0,30.12,North,350,0.0,0.0,81,0.00,CLR,,0.00,WeatherDisplay:10.37,2013-02-17 05:01:00,
2013-02-16 23:06:00,5.7,1.1,30.12,North,350,0.0,0.0,81,0.00,CLR,,0.00,WeatherDisplay:10.37,2013-02-17 05:06:00,
2013-02-16 23:11:00,5.8,1.2,30.12,North,350,0.0,0.0,81,0.00,CLR,,0.00,WeatherDisplay:10.37,2013-02-17 05:11:00,
2013-02-16 23:16:00,6.1,1.8,30.12,North,350,0.0,0.0,82,0.00,CLR,,0.00,WeatherDisplay:10.37,2013-02-17 05:16:00,
2013-02-16 23:21:00,6.3,1.7,30.12,North,350,0.0,0.0,81,0.00,CLR,,0.00,WeatherDisplay:10.37,2013-02-17 05:21:00,
2013-02-16 23:26:00,6.4,1.8,30.12,North,350,0.0,0.0,81,0.00,CLR,,0.00,WeatherDisplay:10.37,2013-02-17 05:26:00,
2013-02-16 23:31:00,6.5,1.9,30.12,North,350,0.0,0.0,81,0.00,CLR,,0.00,WeatherDisplay:10.37,2013-02-17 05:31:00,
2013-02-16 23:36:00,6.5,1.9,30.12,North,350,0.0,0.0,81,0.00,CLR,,0.00,WeatherDisplay:10.37,2013-02-17 05:36:00,
2013-02-16 23:41:00,6.9,2.3,30.12,North,350,0.0,0.0,81,0.00,CLR,,0.00,WeatherDisplay:10.37,2013-02-17 05:41:00,
2013-02-16 23:46:00,7.0,2.1,30.12,North,350,0.0,0.0,80,0.00,CLR,,0.00,WeatherDisplay:10.37,2013-02-17 05:46:00,
2013-02-16 23:51:00,7.2,2.3,30.12,North,350,0.0,0.0,80,0.00,CLR,,0.00,WeatherDisplay:10.37,2013-02-17 05:51:00,
2013-02-16 23:56:00,7.3,2.2,30.12,North,350,0.0,0.0,79,0.00,CLR,,0.00,WeatherDisplay:10.37,2013-02-17 05:56:00,